Regional Weather Roundup
Issued by NWS Cleveland, OH

Home | Current Version | Previous Version | Graphics & Text | Print | Product List | Glossary On
Versions: 1 2 3 4 5 6 7 8 9 10 11 12 13 14 15 16 17 18 19 20 21 22 23 24 25 26 27 28 29 30 31 32 33 34 35 36 37 38 39 40 41 42 43 44 45 46 47 48 49 50
000
ASUS41 KCLE 201010
RWRCLE
OHIO REGIONAL WEATHER ROUNDUP
NATIONAL WEATHER SERVICE WILMINGTON, OH
600 AM EDT SUN AUG 20 2017

NOTE: "FAIR" INDICATES FEW OR NO CLOUDS BELOW 12,000 FEET WITH NO
SIGNIFICANT WEATHER AND/OR OBSTRUCTIONS TO VISIBILITY.

OHZ001>008-015>018-024>027-034-035-043-044-201100-
   NORTHWEST OHIO

CITY           SKY/WX    TMP DP  RH WIND       PRES   REMARKS
DEFIANCE       FAIR      58  56  93 CALM      30.05S
FINDLAY        FAIR      62  57  83 SE3       30.06R
TOLEDO EXPRESS FAIR      58  58 100 CALM      30.05S
TOLEDO EXEC    FAIR      61  59  93 SE3       30.06S
LIMA           FAIR      60  59  96 E3        30.06S
$$

OHZ009>014-019>023-028>033-038-089-201100-
   NORTHEAST OHIO

CITY           SKY/WX    TMP DP  RH WIND       PRES   REMARKS
CLE-HOPKINS    FAIR      62  58  86 CALM      30.10R
CLE-LAKEFRONT  FAIR      65  60  84 SE9       30.06R
CUY CO. ARPT   NOT AVBL
LORAIN-ELYRIA    N/A    N/A N/A N/A MISG      30.08R
ASHTABULA      FAIR      57  56  96 CALM      30.10R
AKRON-CANTON   FAIR      62  57  83 S3        30.10R
WOOSTER        FOG       53  53 100 CALM      30.11R VSB 1
MANSFIELD      FAIR      58  58 100 SE6       30.09R
YOUNGSTOWN     FAIR      59  57  93 CALM      30.10R
$$

OHZ042-051>053-060>062-070>072-077>081-201100-
  SOUTHWEST OHIO

CITY           SKY/WX    TMP DP  RH WIND       PRES   REMARKS
CINC-COVINGTON FAIR      70  68  93 S6        30.04S
CINC-LUNKEN    FAIR      68  68 100 CALM      30.05R FOG
HAMILTON       FAIR      66  66 100 CALM      30.05R
DAYTON         FAIR      65  60  84 E6        30.07R
WRIGHT-PAT AFB PTCLDY    65  63  93 N5        30.06R
DAYTON GENERAL FAIR      69  63  81 SE7       30.05S
WILMINGTON     FAIR      66  65  96 E5        30.06S
$$

OHZ036-037-039>041-045>050-054>059-063>069-073>076-082>088-201100-
  CENTRAL AND SOUTHEAST OHIO

CITY           SKY/WX    TMP DP  RH WIND       PRES   REMARKS
COLUMBUS       FAIR      66  63  90 S3        30.06R
OSU AIRPORT    MOCLDY    63  63 100 NE3       30.07R
BOLTON FIELD   MOCLDY    62  62  99 CALM      30.07S
RICKENBACK AFB MOCLDY    62  62 100 CALM      30.06S
NEWARK         FOG       61  60  97 CALM      30.08R VSB 1/4
MARION         FAIR      58  55  90 CALM      30.08S FOG
LANCASTER      FOG       61  61 100 CALM      30.08R VSB 1/4
ZANESVILLE     FAIR      58  56  93 CALM      30.09R
NEW PHILLY     FOG       62  62 100 CALM      30.10R VSB 1/4
$$




USA.gov is the U.S. government's official web portal to all federal, state and local government web resources and services.